User: anonymous   Login
Location: Unspecified
(0.0000°N, 0.0000°E)
Time: 23:10:15
(UTC+00:00)
Language:

Kosmos-1598 - Orbit

View from above orbital plane
View from above orbital plane
View from above satellite
View from above satellite

Ground track
Ground track

The orbit data is extracted from the following two-line orbital elements,

1 15292U 84100A   18019.16675024  .00000040  00000-0  27430-4 0  9996
2 15292  82.9466 278.9403 0031295 289.1999 223.3993 13.72960526670854
Epoch (UTC): 19 January 2018 04:00:07
Eccentricity: 0.0031295
inclination: 82.9466°
perigee height: 966 km
apogee height: 1012 km
right ascension of ascending node: 278.9403°
argument of perigee: 289.1999°
revolutions per day: 13.72960526
mean anomaly at epoch: 223.3993°
orbit number at epoch: 67085

The dashed part of the orbit path shows where the satellite is in the earth's shadow,  

DLR